Flag for U.S.A. Weather past 2 weeks in Bozeman, Montana, U.S.A.

Now
59 °F

Passing clouds.


Feels Like: 59 °F
Forecast: 53 / 78 °F
Wind: No wind

Location: Gallatin Field

Current Time: Jul 7, 2015 at 8:09:17 AM

Latest Report: Jul 7, 2015 at 7:56 AM


Visibility: 9 mi

Pressure: 30.02 "Hg (25.22 "Hg at 1469m altitude)

Humidity: 72%

Dew point: 50 °F

Location of BozemanLocation

Historic Weather in Bozeman — Graph

°F

Bozeman temperature yesterday

Maximum temperature yesterday: 82 °F (at 4:56 PM)
Minimum temperature yesterday: 53 °F (at 2:56 AM)
Average temperature yesterday: 64 °F

Past Weeks' High & Low Weather Summary

 TemperatureHumidityPressure
High98 °F (Jun 27, 4:56 PM)93% (Jul 6, 2:56 AM)30.22 "Hg (Jul 6, 2:56 AM)
Low46 °F (Jun 22, 6:56 AM)13% (Jun 27, 4:56 PM)29.67 "Hg (Jul 4, 7:56 PM)
Average71 °F48%29.98 "Hg
* Reported Jun 22 6:56 AM — Jul 7 6:56 AM, Bozeman, Weather by CustomWeather, © 2015

Note: Actual official high and low records may vary slightly from our data, if they occured in-between our weather recording intervals... More about our weather records

Advertising

Bozeman weather history for previous 24 hours

 ConditionsComfort  
Time TempWeatherWind HumidityBarometerVisibility
6:56 AM
Tue, Jul 7
51 °FPassing clouds.No wind89%30.03 "Hg9 mi
5:56 AM50 °FClear.No wind89%30.03 "Hg7 mi
4:56 AM52 °FClear.3 mph83%30.01 "Hg10 mi
3:56 AM56 °FClear.7 mph75%30.03 "Hg10 mi
2:56 AM58 °FPassing clouds.6 mph72%30.02 "Hg10 mi
1:56 AM60 °FClear.5 mph67%30.01 "Hg10 mi
12:56 AM59 °FClear.3 mph75%30.03 "Hg10 mi
11:56 PM
Mon, Jul 6
62 °FClear.No wind62%30.03 "Hg10 mi
10:56 PM64 °FClear.No wind58%30.03 "Hg10 mi
9:56 PM67 °FSunny.5 mph53%30.01 "Hg10 mi
8:56 PM72 °FSunny.12 mph44%29.98 "Hg10 mi
7:56 PM77 °FSunny.10 mph40%29.96 "Hg10 mi
6:56 PM81 °FSunny.No wind28%29.95 "Hg10 mi
5:56 PM82 °FSunny.5 mph22%29.97 "Hg10 mi
4:56 PM82 °FSunny.5 mph28%29.98 "Hg10 mi
3:56 PM77 °FSunny.5 mph37%30.03 "Hg10 mi
2:56 PM75 °FSunny.5 mph42%30.06 "Hg10 mi
1:56 PM73 °FSunny.3 mph43%30.10 "Hg10 mi
12:56 PM67 °FSunny.5 mph53%30.13 "Hg10 mi
11:56 AM64 °FPartly sunny.No wind58%30.16 "Hg10 mi
10:56 AM61 °FOvercast.3 mph67%30.18 "Hg10 mi
9:56 AM58 °FMore clouds than sun.No wind75%30.21 "Hg10 mi
8:56 AM55 °FOvercast.No wind80%30.22 "Hg10 mi
Weather by CustomWeather, © 2015

See weather overviewHow to use our weather pages